Year,Month,Day,Hour,Minute,Value (Times are PST for temperature in C)
2021,07,03,00,00,17.70
2021,07,03,00,01,17.70
2021,07,03,00,02,17.70
2021,07,03,00,03,17.70
2021,07,03,00,04,17.70
2021,07,03,00,05,17.70
2021,07,03,00,06,17.70
2021,07,03,00,07,17.70
2021,07,03,00,08,17.70
2021,07,03,00,09,17.60
2021,07,03,00,10,17.60
2021,07,03,00,11,17.60
2021,07,03,00,12,17.60
2021,07,03,00,13,17.60
2021,07,03,00,14,17.60
2021,07,03,00,15,17.60
2021,07,03,00,16,17.60
2021,07,03,00,17,17.60
2021,07,03,00,18,17.60
2021,07,03,00,19,17.60
2021,07,03,00,20,17.60
2021,07,03,00,21,17.60
2021,07,03,00,22,17.50
2021,07,03,00,23,17.50
2021,07,03,00,24,17.50
2021,07,03,00,25,17.50
2021,07,03,00,26,17.50
2021,07,03,00,27,17.50
2021,07,03,00,28,17.50
2021,07,03,00,29,17.40
2021,07,03,00,30,17.40
2021,07,03,00,31,17.40
2021,07,03,00,32,17.40
2021,07,03,00,33,17.40
2021,07,03,00,34,17.30
2021,07,03,00,35,17.30
2021,07,03,00,36,17.30
2021,07,03,00,37,17.30
2021,07,03,00,38,17.30
2021,07,03,00,39,17.40
2021,07,03,00,40,17.40
2021,07,03,00,41,17.40
2021,07,03,00,42,17.40
2021,07,03,00,43,17.40
2021,07,03,00,44,17.40
2021,07,03,00,45,17.40
2021,07,03,00,46,17.40
2021,07,03,00,47,17.30
2021,07,03,00,48,17.30
2021,07,03,00,49,17.30
2021,07,03,00,50,17.30
2021,07,03,00,51,17.30
2021,07,03,00,52,17.30
2021,07,03,00,53,17.30
2021,07,03,00,54,17.30
2021,07,03,00,55,17.30
2021,07,03,00,56,17.30
2021,07,03,00,57,17.30
2021,07,03,00,58,17.30
2021,07,03,00,59,17.30
2021,07,03,01,00,17.30
2021,07,03,01,01,17.30
2021,07,03,01,02,17.30
2021,07,03,01,03,17.30
2021,07,03,01,04,17.30
2021,07,03,01,05,17.30
2021,07,03,01,06,17.30
2021,07,03,01,07,17.30
2021,07,03,01,08,17.20
2021,07,03,01,09,17.20
2021,07,03,01,10,17.20
2021,07,03,01,11,17.10
2021,07,03,01,12,17.10
2021,07,03,01,13,17.10
2021,07,03,01,14,17.10
2021,07,03,01,15,17.00
2021,07,03,01,16,17.00
2021,07,03,01,17,17.00
2021,07,03,01,18,17.00
2021,07,03,01,19,16.90
2021,07,03,01,20,16.90
2021,07,03,01,21,16.90
2021,07,03,01,22,16.90
2021,07,03,01,23,16.90
2021,07,03,01,24,16.90
2021,07,03,01,25,16.80
2021,07,03,01,26,16.80
2021,07,03,01,27,16.80
2021,07,03,01,28,16.80
2021,07,03,01,29,16.80
2021,07,03,01,30,16.80
2021,07,03,01,31,16.80
2021,07,03,01,32,16.80
2021,07,03,01,33,16.80
2021,07,03,01,34,16.80
2021,07,03,01,35,16.80
2021,07,03,01,36,16.80
2021,07,03,01,37,16.80
2021,07,03,01,38,16.80
2021,07,03,01,39,16.80
2021,07,03,01,40,16.80
2021,07,03,01,41,16.70
2021,07,03,01,42,16.70
2021,07,03,01,43,16.70
2021,07,03,01,44,16.70
2021,07,03,01,45,16.70
2021,07,03,01,46,16.60
2021,07,03,01,47,16.60
2021,07,03,01,48,16.50
2021,07,03,01,49,16.40
2021,07,03,01,50,16.40
2021,07,03,01,51,16.40
2021,07,03,01,52,16.30
2021,07,03,01,53,16.30
2021,07,03,01,54,16.30
2021,07,03,01,55,16.20
2021,07,03,01,56,16.10
2021,07,03,01,57,16.10
2021,07,03,01,58,16.00
2021,07,03,01,59,15.90
2021,07,03,02,00,15.80
2021,07,03,02,01,15.80
2021,07,03,02,02,15.70
2021,07,03,02,03,15.70
2021,07,03,02,04,15.70
2021,07,03,02,05,15.60
2021,07,03,02,06,15.50
2021,07,03,02,07,15.50
2021,07,03,02,08,15.50
2021,07,03,02,09,15.40
2021,07,03,02,10,15.30
2021,07,03,02,11,15.30
2021,07,03,02,12,15.30
2021,07,03,02,13,15.20
2021,07,03,02,14,15.20
2021,07,03,02,15,15.20
2021,07,03,02,16,15.20
2021,07,03,02,17,15.20
2021,07,03,02,18,15.10
2021,07,03,02,19,15.10
2021,07,03,02,20,15.10
2021,07,03,02,21,15.10
2021,07,03,02,22,15.10
2021,07,03,02,23,15.10
2021,07,03,02,24,15.00
2021,07,03,02,25,15.00
2021,07,03,02,26,15.10
2021,07,03,02,27,15.10
2021,07,03,02,28,15.20
2021,07,03,02,29,15.20
2021,07,03,02,30,15.30
2021,07,03,02,31,15.30
2021,07,03,02,32,15.30
2021,07,03,02,33,15.30
2021,07,03,02,34,15.30
2021,07,03,02,35,15.30
2021,07,03,02,36,15.30
2021,07,03,02,37,15.40
2021,07,03,02,38,15.40
2021,07,03,02,39,15.40
2021,07,03,02,40,15.40
2021,07,03,02,41,15.40
2021,07,03,02,42,15.40
2021,07,03,02,43,15.50
2021,07,03,02,44,15.50
2021,07,03,02,45,15.50
2021,07,03,02,46,15.50
2021,07,03,02,47,15.50
2021,07,03,02,48,15.40
2021,07,03,02,49,15.40
2021,07,03,02,50,15.40
2021,07,03,02,51,15.40
2021,07,03,02,52,15.30
2021,07,03,02,53,15.30
2021,07,03,02,54,15.30
2021,07,03,02,55,15.30
2021,07,03,02,56,15.30
2021,07,03,02,57,15.30
2021,07,03,02,58,15.30
2021,07,03,02,59,15.40
2021,07,03,03,00,15.40
2021,07,03,03,01,15.40
2021,07,03,03,02,15.40
2021,07,03,03,03,15.40
2021,07,03,03,04,15.50
2021,07,03,03,05,15.50
2021,07,03,03,06,15.50
2021,07,03,03,07,15.50
2021,07,03,03,08,15.50
2021,07,03,03,09,15.50
2021,07,03,03,10,15.50
2021,07,03,03,11,15.50
2021,07,03,03,12,15.50
2021,07,03,03,13,15.50
2021,07,03,03,14,15.50
2021,07,03,03,15,15.50
2021,07,03,03,16,15.60
2021,07,03,03,17,15.60
2021,07,03,03,18,15.60
2021,07,03,03,19,15.70
2021,07,03,03,20,15.70
2021,07,03,03,21,15.70
2021,07,03,03,22,15.70
2021,07,03,03,23,15.70
2021,07,03,03,24,15.80
2021,07,03,03,25,15.80
2021,07,03,03,26,15.80
2021,07,03,03,27,15.80
2021,07,03,03,28,15.80
2021,07,03,03,29,15.80
2021,07,03,03,30,15.80
2021,07,03,03,31,15.80
2021,07,03,03,32,15.80
2021,07,03,03,33,15.80
2021,07,03,03,34,15.70
2021,07,03,03,35,15.70
2021,07,03,03,36,15.70
2021,07,03,03,37,15.70
2021,07,03,03,38,15.70
2021,07,03,03,39,15.70
2021,07,03,03,40,15.70
2021,07,03,03,41,15.70
2021,07,03,03,42,15.70
2021,07,03,03,43,15.70
2021,07,03,03,44,15.70
2021,07,03,03,45,15.70
2021,07,03,03,46,15.80
2021,07,03,03,47,15.80
2021,07,03,03,48,15.80
2021,07,03,03,49,15.80
2021,07,03,03,50,15.80
2021,07,03,03,51,15.80
2021,07,03,03,52,15.80
2021,07,03,03,53,15.80
2021,07,03,03,54,15.80
2021,07,03,03,55,15.80
2021,07,03,03,56,15.80
2021,07,03,03,57,15.90
2021,07,03,03,58,15.90
2021,07,03,03,59,15.90
2021,07,03,04,00,15.90
2021,07,03,04,01,15.90
2021,07,03,04,02,15.90
2021,07,03,04,03,15.90
2021,07,03,04,04,15.90
2021,07,03,04,05,15.90
2021,07,03,04,06,15.90
2021,07,03,04,07,15.90
2021,07,03,04,08,15.90
2021,07,03,04,09,15.90
2021,07,03,04,10,16.00
2021,07,03,04,11,16.00
2021,07,03,04,12,15.90
2021,07,03,04,13,15.90
2021,07,03,04,14,15.90
2021,07,03,04,15,15.80
2021,07,03,04,16,15.80
2021,07,03,04,17,15.80
2021,07,03,04,18,15.70
2021,07,03,04,19,15.60
2021,07,03,04,20,15.60
2021,07,03,04,21,15.50
2021,07,03,04,22,15.50
2021,07,03,04,23,15.40
2021,07,03,04,24,15.30
2021,07,03,04,25,15.30
2021,07,03,04,26,15.30
2021,07,03,04,27,15.30
2021,07,03,04,28,15.30
2021,07,03,04,29,15.30
2021,07,03,04,30,15.40
2021,07,03,04,31,15.40
2021,07,03,04,32,15.40
2021,07,03,04,33,15.50
2021,07,03,04,34,15.50
2021,07,03,04,35,15.40
2021,07,03,04,36,15.40
2021,07,03,04,37,15.40
2021,07,03,04,38,15.50
2021,07,03,04,39,15.50
2021,07,03,04,40,15.50
2021,07,03,04,41,15.50
2021,07,03,04,42,15.50
2021,07,03,04,43,15.50
2021,07,03,04,44,15.50
2021,07,03,04,45,15.50
2021,07,03,04,46,15.50
2021,07,03,04,47,15.60
2021,07,03,04,48,15.60
2021,07,03,04,49,15.60
2021,07,03,04,50,15.70
2021,07,03,04,51,15.70
2021,07,03,04,52,15.70
2021,07,03,04,53,15.70
2021,07,03,04,54,15.70
2021,07,03,04,55,15.80
2021,07,03,04,56,15.80
2021,07,03,04,57,15.80
2021,07,03,04,58,15.80
2021,07,03,04,59,15.80
2021,07,03,05,00,15.80
2021,07,03,05,01,15.80
2021,07,03,05,02,15.80
2021,07,03,05,03,15.80
2021,07,03,05,04,15.80
2021,07,03,05,05,15.80
2021,07,03,05,06,15.80
2021,07,03,05,07,15.80
2021,07,03,05,08,15.80
2021,07,03,05,09,15.80
2021,07,03,05,10,15.80
2021,07,03,05,11,15.80
2021,07,03,05,12,15.80
2021,07,03,05,13,15.80
2021,07,03,05,14,15.80
2021,07,03,05,15,15.80
2021,07,03,05,16,15.80
2021,07,03,05,17,15.80
2021,07,03,05,18,15.80
2021,07,03,05,19,15.80
2021,07,03,05,20,15.80
2021,07,03,05,21,15.80
2021,07,03,05,22,15.80
2021,07,03,05,23,15.80
2021,07,03,05,24,15.80
2021,07,03,05,25,15.80
2021,07,03,05,26,15.70
2021,07,03,05,27,15.70
2021,07,03,05,28,15.70
2021,07,03,05,29,15.70
2021,07,03,05,30,15.80
2021,07,03,05,31,15.80
2021,07,03,05,32,15.80
2021,07,03,05,33,15.80
2021,07,03,05,34,15.80
2021,07,03,05,35,15.80
2021,07,03,05,36,15.80
2021,07,03,05,37,15.80
2021,07,03,05,38,15.80
2021,07,03,05,39,15.80
2021,07,03,05,40,15.80
2021,07,03,05,41,15.80
2021,07,03,05,42,15.80
2021,07,03,05,43,15.80
2021,07,03,05,44,15.80
2021,07,03,05,45,15.80
2021,07,03,05,46,15.90
2021,07,03,05,47,15.90
2021,07,03,05,48,15.90
2021,07,03,05,49,15.90
2021,07,03,05,50,15.90
2021,07,03,05,51,16.00
2021,07,03,05,52,16.10
2021,07,03,05,53,16.10
2021,07,03,05,54,16.10
2021,07,03,05,55,16.10
2021,07,03,05,56,16.20
2021,07,03,05,57,16.20
2021,07,03,05,58,16.30
2021,07,03,05,59,16.30
2021,07,03,06,00,16.40
2021,07,03,06,01,16.40
2021,07,03,06,02,16.40
2021,07,03,06,03,16.50
2021,07,03,06,04,16.60
2021,07,03,06,05,16.60
2021,07,03,06,06,16.70
2021,07,03,06,07,16.70
2021,07,03,06,08,16.80
2021,07,03,06,09,16.90
2021,07,03,06,10,16.90
2021,07,03,06,11,17.00
2021,07,03,06,12,17.00
2021,07,03,06,13,17.10
2021,07,03,06,14,17.20
2021,07,03,06,15,17.20
2021,07,03,06,16,17.30
2021,07,03,06,17,17.30
2021,07,03,06,18,17.30
2021,07,03,06,19,17.30
2021,07,03,06,20,17.30
2021,07,03,06,21,17.40
2021,07,03,06,22,17.40
2021,07,03,06,23,17.40
2021,07,03,06,24,17.50
2021,07,03,06,25,17.50
2021,07,03,06,26,17.50
2021,07,03,06,27,17.50
2021,07,03,06,28,17.60
2021,07,03,06,29,17.60
2021,07,03,06,30,17.70
2021,07,03,06,31,17.70
2021,07,03,06,32,17.70
2021,07,03,06,33,17.80
2021,07,03,06,34,17.80
2021,07,03,06,35,17.90
2021,07,03,06,36,17.90
2021,07,03,06,37,17.90
2021,07,03,06,38,18.00
2021,07,03,06,39,18.10
2021,07,03,06,40,18.20
2021,07,03,06,41,18.20
2021,07,03,06,42,18.30
2021,07,03,06,43,18.30
2021,07,03,06,44,18.30
2021,07,03,06,45,18.40
2021,07,03,06,46,18.40
2021,07,03,06,47,18.50
2021,07,03,06,48,18.50
2021,07,03,06,49,18.60
2021,07,03,06,50,18.60
2021,07,03,06,51,18.60
2021,07,03,06,52,18.70
2021,07,03,06,53,18.70
2021,07,03,06,54,18.60
2021,07,03,06,55,18.60
2021,07,03,06,56,18.70
2021,07,03,06,57,18.70
2021,07,03,06,58,18.80
2021,07,03,06,59,18.80
2021,07,03,07,00,18.80
2021,07,03,07,01,18.80
2021,07,03,07,02,18.80
2021,07,03,07,03,18.80
2021,07,03,07,04,18.90
2021,07,03,07,05,18.90
2021,07,03,07,06,18.90
2021,07,03,07,07,18.90
2021,07,03,07,08,18.90
2021,07,03,07,09,18.90
2021,07,03,07,10,18.90
2021,07,03,07,11,18.90
2021,07,03,07,12,18.90
2021,07,03,07,13,18.90
2021,07,03,07,14,18.90
2021,07,03,07,15,19.00
2021,07,03,07,16,19.10
2021,07,03,07,17,19.10
2021,07,03,07,18,19.10
2021,07,03,07,19,19.10
2021,07,03,07,20,19.10
2021,07,03,07,21,19.10
2021,07,03,07,22,19.10
2021,07,03,07,23,19.10
2021,07,03,07,24,19.10
2021,07,03,07,25,19.10
2021,07,03,07,26,19.10
2021,07,03,07,27,19.10
2021,07,03,07,28,19.10
2021,07,03,07,29,19.20
2021,07,03,07,30,19.20
2021,07,03,07,31,19.30
2021,07,03,07,32,19.30
2021,07,03,07,33,19.30
2021,07,03,07,34,19.20
2021,07,03,07,35,19.20
2021,07,03,07,36,19.20
2021,07,03,07,37,19.20
2021,07,03,07,38,19.10
2021,07,03,07,39,19.10
2021,07,03,07,40,19.10
2021,07,03,07,41,19.10
2021,07,03,07,42,19.10
2021,07,03,07,43,19.20
2021,07,03,07,44,19.20
2021,07,03,07,45,19.10
2021,07,03,07,46,19.10
2021,07,03,07,47,19.10
2021,07,03,07,48,19.10
2021,07,03,07,49,19.10
2021,07,03,07,50,19.10
2021,07,03,07,51,19.10
2021,07,03,07,52,19.00
2021,07,03,07,53,18.90
2021,07,03,07,54,18.90
2021,07,03,07,55,18.80
2021,07,03,07,56,18.80
2021,07,03,07,57,18.70
2021,07,03,07,58,18.70
2021,07,03,07,59,18.80
2021,07,03,08,00,18.80
2021,07,03,08,01,18.80
2021,07,03,08,02,18.80
2021,07,03,08,03,18.70
2021,07,03,08,04,18.70
2021,07,03,08,05,18.70
2021,07,03,08,06,18.70
2021,07,03,08,07,18.70
2021,07,03,08,08,18.70
2021,07,03,08,09,18.60
2021,07,03,08,10,18.50
2021,07,03,08,11,18.40
2021,07,03,08,12,18.20
2021,07,03,08,13,18.10
2021,07,03,08,14,18.00
2021,07,03,08,15,17.90
2021,07,03,08,16,17.90
2021,07,03,08,17,17.90
2021,07,03,08,18,18.00
2021,07,03,08,19,18.10
2021,07,03,08,20,18.20
2021,07,03,08,21,18.30
2021,07,03,08,22,18.40
2021,07,03,08,23,18.40
2021,07,03,08,24,18.40
2021,07,03,08,25,18.50
2021,07,03,08,26,18.40
2021,07,03,08,27,18.30
2021,07,03,08,28,18.30
2021,07,03,08,29,18.20
2021,07,03,08,30,18.10
2021,07,03,08,31,17.90
2021,07,03,08,32,17.90
2021,07,03,08,33,17.80
2021,07,03,08,34,17.80
2021,07,03,08,35,17.80
2021,07,03,08,36,17.80
2021,07,03,08,37,17.80
2021,07,03,08,38,17.80
2021,07,03,08,39,17.90
2021,07,03,08,40,17.90
2021,07,03,08,41,17.90
2021,07,03,08,42,17.90
2021,07,03,08,43,17.90
2021,07,03,08,44,18.00
2021,07,03,08,45,18.10
2021,07,03,08,46,18.20
2021,07,03,08,47,18.30
2021,07,03,08,48,18.30
2021,07,03,08,49,18.40
2021,07,03,08,50,18.50
2021,07,03,08,51,18.60
2021,07,03,08,52,18.60
2021,07,03,08,53,18.70
2021,07,03,08,54,18.80
2021,07,03,08,55,18.90
2021,07,03,08,56,18.90
2021,07,03,08,57,18.90
2021,07,03,08,58,18.90
2021,07,03,08,59,18.90
2021,07,03,09,00,18.90
2021,07,03,09,01,18.90
2021,07,03,09,02,18.90
2021,07,03,09,03,18.80
2021,07,03,09,04,18.80
2021,07,03,09,05,18.90
2021,07,03,09,06,18.90
2021,07,03,09,07,18.90
2021,07,03,09,08,18.90
2021,07,03,09,09,18.80
2021,07,03,09,10,18.70
2021,07,03,09,11,18.70
2021,07,03,09,12,18.70
2021,07,03,09,13,18.80
2021,07,03,09,14,18.90
2021,07,03,09,15,19.00
2021,07,03,09,16,19.10
2021,07,03,09,17,19.10
2021,07,03,09,18,19.10
2021,07,03,09,19,19.10
2021,07,03,09,20,19.10
2021,07,03,09,21,19.10
2021,07,03,09,22,19.20
2021,07,03,09,23,19.10
2021,07,03,09,24,19.10
2021,07,03,09,25,19.00
2021,07,03,09,26,18.90
2021,07,03,09,27,18.90
2021,07,03,09,28,18.90
2021,07,03,09,29,18.90
2021,07,03,09,30,19.00
2021,07,03,09,31,19.10
2021,07,03,09,32,19.10
2021,07,03,09,33,19.00
2021,07,03,09,34,18.90
2021,07,03,09,35,18.90
2021,07,03,09,36,18.90
2021,07,03,09,37,19.10
2021,07,03,09,38,19.10
2021,07,03,09,39,19.00
2021,07,03,09,40,18.90
2021,07,03,09,41,18.70
2021,07,03,09,42,18.60
2021,07,03,09,43,18.50
2021,07,03,09,44,18.40
2021,07,03,09,45,18.30
2021,07,03,09,46,18.20
2021,07,03,09,47,18.30
2021,07,03,09,48,18.30
2021,07,03,09,49,18.40
2021,07,03,09,50,18.50
2021,07,03,09,51,18.50
2021,07,03,09,52,18.60
2021,07,03,09,53,18.80
2021,07,03,09,54,18.90
2021,07,03,09,55,18.90
2021,07,03,09,56,18.90
2021,07,03,09,57,18.90
2021,07,03,09,58,19.00
2021,07,03,09,59,19.10
2021,07,03,10,00,19.10
2021,07,03,10,01,19.20
2021,07,03,10,02,19.20
2021,07,03,10,03,19.10
2021,07,03,10,04,19.10
2021,07,03,10,05,19.00
2021,07,03,10,06,18.90
2021,07,03,10,07,18.70
2021,07,03,10,08,18.70
2021,07,03,10,09,18.80
2021,07,03,10,10,18.80
2021,07,03,10,11,18.90
2021,07,03,10,12,18.90
2021,07,03,10,13,18.80
2021,07,03,10,14,18.70
2021,07,03,10,15,18.60
2021,07,03,10,16,18.60
2021,07,03,10,17,18.60
2021,07,03,10,18,18.60
2021,07,03,10,19,18.60
2021,07,03,10,20,18.60
2021,07,03,10,21,18.60
2021,07,03,10,22,18.50
2021,07,03,10,23,18.50
2021,07,03,10,24,18.50
2021,07,03,10,25,18.40
2021,07,03,10,26,18.50
2021,07,03,10,27,18.60
2021,07,03,10,28,18.70
2021,07,03,10,29,18.70
2021,07,03,10,30,18.90
2021,07,03,10,31,19.00
2021,07,03,10,32,19.10
2021,07,03,10,33,19.20
2021,07,03,10,34,19.30
2021,07,03,10,35,19.30
2021,07,03,10,36,19.40
2021,07,03,10,37,19.40
2021,07,03,10,38,19.40
2021,07,03,10,39,19.40
2021,07,03,10,40,19.40
2021,07,03,10,41,19.30
2021,07,03,10,42,19.40
2021,07,03,10,43,19.50
2021,07,03,10,44,19.60
2021,07,03,10,45,19.60
2021,07,03,10,46,19.50
2021,07,03,10,47,19.60
2021,07,03,10,48,19.60
2021,07,03,10,49,19.60
2021,07,03,10,50,19.50
2021,07,03,10,51,19.50
2021,07,03,10,52,19.50
2021,07,03,10,53,19.50
2021,07,03,10,54,19.50
2021,07,03,10,55,19.60
2021,07,03,10,56,19.60
2021,07,03,10,57,19.50
2021,07,03,10,58,19.50
2021,07,03,10,59,19.60
2021,07,03,11,00,19.60
2021,07,03,11,01,19.50
2021,07,03,11,02,19.50
2021,07,03,11,03,19.40
2021,07,03,11,04,19.40
2021,07,03,11,05,19.30
2021,07,03,11,06,19.30
2021,07,03,11,07,19.30
2021,07,03,11,08,19.30
2021,07,03,11,09,19.30
2021,07,03,11,10,19.30
2021,07,03,11,11,19.40
2021,07,03,11,12,19.40
2021,07,03,11,13,19.40
2021,07,03,11,14,19.30
2021,07,03,11,15,19.20
2021,07,03,11,16,19.20
2021,07,03,11,17,19.10
2021,07,03,11,18,19.10
2021,07,03,11,19,19.20
2021,07,03,11,20,19.30
2021,07,03,11,21,19.30
2021,07,03,11,22,19.40
2021,07,03,11,23,19.30
2021,07,03,11,24,19.30
2021,07,03,11,25,19.10
2021,07,03,11,26,19.10
2021,07,03,11,27,19.10
2021,07,03,11,28,19.10
2021,07,03,11,29,19.10
2021,07,03,11,30,19.10
2021,07,03,11,31,19.10
2021,07,03,11,32,19.10
2021,07,03,11,33,19.10
2021,07,03,11,34,19.10
2021,07,03,11,35,19.10
2021,07,03,11,36,19.10
2021,07,03,11,37,19.10
2021,07,03,11,38,19.20
2021,07,03,11,39,19.10
2021,07,03,11,40,19.20
2021,07,03,11,41,19.20
2021,07,03,11,42,19.20
2021,07,03,11,43,19.10
2021,07,03,11,44,19.10
2021,07,03,11,45,19.10
2021,07,03,11,46,19.10
2021,07,03,11,47,19.20
2021,07,03,11,48,19.30
2021,07,03,11,49,19.30
2021,07,03,11,50,19.30
2021,07,03,11,51,19.30
2021,07,03,11,52,19.40
2021,07,03,11,53,19.50
2021,07,03,11,54,19.50
2021,07,03,11,55,19.60
2021,07,03,11,56,19.70
2021,07,03,11,57,19.80
2021,07,03,11,58,19.80
2021,07,03,11,59,19.90
2021,07,03,12,00,20.10
2021,07,03,12,01,20.10
2021,07,03,12,02,20.10
2021,07,03,12,03,20.00
2021,07,03,12,04,19.90
2021,07,03,12,05,20.00
2021,07,03,12,06,20.10
2021,07,03,12,07,20.20
2021,07,03,12,08,20.30
2021,07,03,12,09,20.40
2021,07,03,12,10,20.50
2021,07,03,12,11,20.60
2021,07,03,12,12,20.60
2021,07,03,12,13,20.60
2021,07,03,12,14,20.60
2021,07,03,12,15,20.60
2021,07,03,12,16,20.60
2021,07,03,12,17,20.70
2021,07,03,12,18,20.80
2021,07,03,12,19,20.80
2021,07,03,12,20,20.90
2021,07,03,12,21,21.00
2021,07,03,12,22,21.10
2021,07,03,12,23,21.30
2021,07,03,12,24,21.20
2021,07,03,12,25,20.90
2021,07,03,12,26,20.80
2021,07,03,12,27,20.80
2021,07,03,12,28,20.70
2021,07,03,12,29,20.70
2021,07,03,12,30,20.70
2021,07,03,12,31,20.70
2021,07,03,12,32,20.80
2021,07,03,12,33,20.80
2021,07,03,12,34,20.80
2021,07,03,12,35,20.70
2021,07,03,12,36,20.60
2021,07,03,12,37,20.70
2021,07,03,12,38,20.70
2021,07,03,12,39,20.70
2021,07,03,12,40,20.60
2021,07,03,12,41,20.50
2021,07,03,12,42,20.60
2021,07,03,12,43,20.60
2021,07,03,12,44,20.60
2021,07,03,12,45,20.80
2021,07,03,12,46,20.80
2021,07,03,12,47,20.80
2021,07,03,12,48,20.80
2021,07,03,12,49,20.70
2021,07,03,12,50,20.80
2021,07,03,12,51,20.80
2021,07,03,12,52,20.70
2021,07,03,12,53,20.80
2021,07,03,12,54,20.80
2021,07,03,12,55,20.80
2021,07,03,12,56,20.80
2021,07,03,12,57,20.70
2021,07,03,12,58,20.60
2021,07,03,12,59,20.60
2021,07,03,13,00,20.50
2021,07,03,13,01,20.50
2021,07,03,13,02,20.40
2021,07,03,13,03,20.40
2021,07,03,13,04,20.40
2021,07,03,13,05,20.30
2021,07,03,13,06,20.30
2021,07,03,13,07,20.20
2021,07,03,13,08,20.20
2021,07,03,13,09,20.30
2021,07,03,13,10,20.30
2021,07,03,13,11,20.20
2021,07,03,13,12,20.30
2021,07,03,13,13,20.30
2021,07,03,13,14,20.50
2021,07,03,13,15,20.60
2021,07,03,13,16,20.70
2021,07,03,13,17,20.70
2021,07,03,13,18,20.70
2021,07,03,13,19,20.60
2021,07,03,13,20,20.60
2021,07,03,13,21,20.70
2021,07,03,13,22,20.80
2021,07,03,13,23,21.00
2021,07,03,13,24,21.10
2021,07,03,13,25,21.30
2021,07,03,13,26,21.30
2021,07,03,13,27,21.20
2021,07,03,13,28,21.20
2021,07,03,13,29,21.10
2021,07,03,13,30,21.00
2021,07,03,13,31,21.00
2021,07,03,13,32,21.00
2021,07,03,13,33,21.10
2021,07,03,13,34,21.20
2021,07,03,13,35,21.20
2021,07,03,13,36,21.20
2021,07,03,13,37,21.30
2021,07,03,13,38,21.30
2021,07,03,13,39,21.40
2021,07,03,13,40,21.50
2021,07,03,13,41,21.60
2021,07,03,13,42,21.60
2021,07,03,13,43,21.70
2021,07,03,13,44,21.80
2021,07,03,13,45,21.90
2021,07,03,13,46,22.00
2021,07,03,13,47,22.00
2021,07,03,13,48,22.00
2021,07,03,13,49,22.00
2021,07,03,13,50,22.10
2021,07,03,13,51,22.10
2021,07,03,13,52,22.20
2021,07,03,13,53,22.20
2021,07,03,13,54,22.30
2021,07,03,13,55,22.40
2021,07,03,13,56,22.50
2021,07,03,13,57,22.60
2021,07,03,13,58,22.50
2021,07,03,13,59,22.50
2021,07,03,14,00,22.40
2021,07,03,14,01,22.40
2021,07,03,14,02,22.40
2021,07,03,14,03,22.40
2021,07,03,14,04,22.50
2021,07,03,14,05,22.50
2021,07,03,14,06,22.30
2021,07,03,14,07,22.20
2021,07,03,14,08,22.20
2021,07,03,14,09,22.30
2021,07,03,14,10,22.30
2021,07,03,14,11,22.30
2021,07,03,14,12,22.30
2021,07,03,14,13,22.10
2021,07,03,14,14,22.00
2021,07,03,14,15,21.90
2021,07,03,14,16,21.90
2021,07,03,14,17,21.90
2021,07,03,14,18,21.90
2021,07,03,14,19,22.00
2021,07,03,14,20,22.10
2021,07,03,14,21,22.20
2021,07,03,14,22,22.20
2021,07,03,14,23,22.40
2021,07,03,14,24,22.60
2021,07,03,14,25,22.70
2021,07,03,14,26,22.80
2021,07,03,14,27,22.70
2021,07,03,14,28,22.70
2021,07,03,14,29,22.50
2021,07,03,14,30,22.50
2021,07,03,14,31,22.50
2021,07,03,14,32,22.60
2021,07,03,14,33,22.60
2021,07,03,14,34,22.50
2021,07,03,14,35,22.40
2021,07,03,14,36,22.30
2021,07,03,14,37,22.20
2021,07,03,14,38,22.10
2021,07,03,14,39,22.10
2021,07,03,14,40,22.10
2021,07,03,14,41,22.10
2021,07,03,14,42,22.00
2021,07,03,14,43,22.10
2021,07,03,14,44,22.20
2021,07,03,14,45,22.40
2021,07,03,14,46,22.50
2021,07,03,14,47,22.50
2021,07,03,14,48,22.50
2021,07,03,14,49,22.40
2021,07,03,14,50,22.30
2021,07,03,14,51,22.30
2021,07,03,14,52,22.30
2021,07,03,14,53,22.30
2021,07,03,14,54,22.30
2021,07,03,14,55,22.40
2021,07,03,14,56,22.50
2021,07,03,14,57,22.70
2021,07,03,14,58,22.80
2021,07,03,14,59,22.90
2021,07,03,15,00,23.00
2021,07,03,15,01,23.10
2021,07,03,15,02,23.20
2021,07,03,15,03,23.20
2021,07,03,15,04,23.20
2021,07,03,15,05,23.20
2021,07,03,15,06,23.10
2021,07,03,15,07,23.10
2021,07,03,15,08,23.10
2021,07,03,15,09,23.10
2021,07,03,15,10,23.10
2021,07,03,15,11,23.10
2021,07,03,15,12,23.20
2021,07,03,15,13,23.20
2021,07,03,15,14,23.10
2021,07,03,15,15,23.10
2021,07,03,15,16,23.10
2021,07,03,15,17,23.10
2021,07,03,15,18,23.10
2021,07,03,15,19,23.20
2021,07,03,15,20,23.30
2021,07,03,15,21,23.30
2021,07,03,15,22,23.30
2021,07,03,15,23,23.30
2021,07,03,15,24,23.30
2021,07,03,15,25,23.30
2021,07,03,15,26,23.30
2021,07,03,15,27,23.30
2021,07,03,15,28,23.10
2021,07,03,15,29,23.00
2021,07,03,15,30,22.90
2021,07,03,15,31,23.00
2021,07,03,15,32,23.10
2021,07,03,15,33,23.20
2021,07,03,15,34,23.20
2021,07,03,15,35,23.30
2021,07,03,15,36,23.30
2021,07,03,15,37,23.40
2021,07,03,15,38,23.40
2021,07,03,15,39,23.60
2021,07,03,15,40,23.60
2021,07,03,15,41,23.70
2021,07,03,15,42,23.70
2021,07,03,15,43,23.70
2021,07,03,15,44,23.70
2021,07,03,15,45,23.70
2021,07,03,15,46,23.70
2021,07,03,15,47,23.70
2021,07,03,15,48,23.80
2021,07,03,15,49,23.70
2021,07,03,15,50,23.60
2021,07,03,15,51,23.50
2021,07,03,15,52,23.60
2021,07,03,15,53,23.60
2021,07,03,15,54,23.70
2021,07,03,15,55,23.70
2021,07,03,15,56,23.70
2021,07,03,15,57,23.60
2021,07,03,15,58,23.50
2021,07,03,15,59,23.40
2021,07,03,16,00,23.30
2021,07,03,16,01,23.20
2021,07,03,16,02,23.10
2021,07,03,16,03,23.10
2021,07,03,16,04,23.10
2021,07,03,16,05,23.10
2021,07,03,16,06,23.10
2021,07,03,16,07,23.10
2021,07,03,16,08,23.10
2021,07,03,16,09,23.10
2021,07,03,16,10,23.00
2021,07,03,16,11,22.90
2021,07,03,16,12,22.90
2021,07,03,16,13,22.80
2021,07,03,16,14,22.80
2021,07,03,16,15,22.80
2021,07,03,16,16,22.80
2021,07,03,16,17,22.80
2021,07,03,16,18,22.90
2021,07,03,16,19,22.90
2021,07,03,16,20,22.80
2021,07,03,16,21,22.70
2021,07,03,16,22,22.70
2021,07,03,16,23,22.80
2021,07,03,16,24,22.90
2021,07,03,16,25,22.90
2021,07,03,16,26,22.90
2021,07,03,16,27,22.90
2021,07,03,16,28,22.90
2021,07,03,16,29,22.90
2021,07,03,16,30,22.90
2021,07,03,16,31,22.80
2021,07,03,16,32,22.80
2021,07,03,16,33,22.80
2021,07,03,16,34,22.80
2021,07,03,16,35,22.90
2021,07,03,16,36,22.90
2021,07,03,16,37,22.90
2021,07,03,16,38,22.90
2021,07,03,16,39,22.90
2021,07,03,16,40,22.90
2021,07,03,16,41,22.90
2021,07,03,16,42,22.90
2021,07,03,16,43,22.90
2021,07,03,16,44,22.90
2021,07,03,16,45,22.90
2021,07,03,16,46,23.00
2021,07,03,16,47,23.10
2021,07,03,16,48,23.10
2021,07,03,16,49,23.20
2021,07,03,16,50,23.30
2021,07,03,16,51,23.40
2021,07,03,16,52,23.60
2021,07,03,16,53,23.70
2021,07,03,16,54,23.70
2021,07,03,16,55,23.70
2021,07,03,16,56,23.70
2021,07,03,16,57,23.70
2021,07,03,16,58,23.70
2021,07,03,16,59,23.80
2021,07,03,17,00,23.70
2021,07,03,17,01,23.70
2021,07,03,17,02,23.70
2021,07,03,17,03,23.70
2021,07,03,17,04,23.70
2021,07,03,17,05,23.70
2021,07,03,17,06,23.70
2021,07,03,17,07,23.70
2021,07,03,17,08,23.70
2021,07,03,17,09,23.70
2021,07,03,17,10,23.70
2021,07,03,17,11,23.80
2021,07,03,17,12,23.90
2021,07,03,17,13,23.90
2021,07,03,17,14,24.00
2021,07,03,17,15,24.10
2021,07,03,17,16,24.10
2021,07,03,17,17,24.10
2021,07,03,17,18,24.10
2021,07,03,17,19,24.10